This is the latest recevied weather packets stored in our database for station/object N4BBA. If no packets are shown the sender has not sent any weather packets the latest 10 day(s).
| Time | Temp. | Humidity | Pressure | Rain* | Wind** | Luminosity | Snow |
|---|---|---|---|---|---|---|---|
| 1778004975 | 26.11° C | 46% | 1015.8 hPa | 0 mm | - | 795 W/m² | - |
| 1778004672 | 26.67° C | 46% | 1016.1 hPa | 0 mm | - | 729 W/m² | - |
| 1778004368 | 26.11° C | 47% | 1016.1 hPa | 0 mm | - | 821 W/m² | - |
| 1778004066 | 25.56° C | 48% | 1016.2 hPa | 0 mm | - | 341 W/m² | - |
| 1778003761 | 26.11° C | 46% | 1016.1 hPa | 0 mm | - | 836 W/m² | - |
| 1778003458 | 26.11° C | 47% | 1016 hPa | 0 mm | - | 856 W/m² | - |
| 1778003155 | 26.11° C | 48% | 1016.2 hPa | 0 mm | - | 850 W/m² | - |
| 1778002851 | 26.11° C | 48% | 1016 hPa | 0 mm | - | 860 W/m² | - |
| 1778002548 | 26.11° C | 48% | 1015.9 hPa | 0 mm | - | 881 W/m² | - |
| 1778002245 | 26.11° C | 49% | 1016 hPa | 0 mm | - | 825 W/m² | - |
| 1778001942 | 25.56° C | 50% | 1016 hPa | 0 mm | - | 863 W/m² | - |
| 1778001639 | 26.11° C | 50% | 1016.2 hPa | 0 mm | - | 852 W/m² | - |
| 1778001333 | 25.56° C | 51% | 1016.3 hPa | 0 mm | - | 886 W/m² | - |
| 1778001031 | 25.56° C | 52% | 1016.4 hPa | 0 mm | - | 862 W/m² | - |
| 1778000728 | 25.56° C | 51% | 1016.1 hPa | 0 mm | - | 832 W/m² | - |
| 1778000424 | 25.56° C | 50% | 1016.3 hPa | 0 mm | - | 835 W/m² | - |
| 1778000119 | 25° C | 52% | 1016.4 hPa | 0 mm | - | 827 W/m² | - |
| 1777999815 | 25° C | 52% | 1016.5 hPa | 0 mm | - | 826 W/m² | - |
| 1777999511 | 25° C | 53% | 1016.5 hPa | 0 mm | - | 829 W/m² | - |
| 1777999209 | 25° C | 53% | 1016.5 hPa | 0 mm | - | 818 W/m² | - |
| 1777998908 | 25° C | 54% | 1016.4 hPa | 0 mm | - | 805 W/m² | - |
| 1777998603 | 25° C | 54% | 1016.3 hPa | 0 mm | - | 806 W/m² | - |
| 1777998297 | 25° C | 53% | 1016.5 hPa | 0 mm | - | 802 W/m² | - |
| 1777997994 | 24.44° C | 54% | 1016.5 hPa | 0 mm | - | 803 W/m² | - |
| 1777997690 | 24.44° C | 54% | 1016.5 hPa | 0 mm | - | 795 W/m² | - |
* Rain latest hour (hover to see other rain measurements)
** Current wind speed in m/s (hover to see current wind gust speed)